Weather Service Report


404 
ASUS41 KBTV 271430
RWRBTV
VERMONT REGIONAL WEATHER ROUNDUP
NATIONAL WEATHER SERVICE BURLINGTON VT
900 AM EST THU NOV 27 2014

NOTE: "FAIR" INDICATES FEW OR NO CLOUDS BELOW 12,000 FEET WITH NO 
SIGNIFICANT WEATHER AND/OR OBSTRUCTIONS TO VISIBILITY.

* THESE REPORTS ARE NOT UNDER NWS QUALITY CONTROL AND/OR DO NOT
  REPORT WEATHER SUCH AS PRECIPITATION AND FOG.

VTZ001>019-271500-
_____VERMONT_____

  
CITY           SKY/WX    TMP DP  RH WIND       PRES   REMARKS
BURLINGTON     CLOUDY    27  21  78 N8        30.01R                  
MONTPELIER     CLOUDY    24  20  84 N5        29.97R                  
MORRISVILLE    CLOUDY    26  21  81 N5        29.98R                  
ST. JOHNSBURY*   N/A     28  22  78 MISG      29.92R                  
LYNDONVILLE*   CLOUDY    25  19  77 W10       29.93R WCI  15          
MIDDLEBURY*    CLOUDY    28  26  94 N8        29.99R                  
RUTLAND*       CLOUDY    27  23  86 N7        29.96R                  
HIGHGATE*      CLOUDY    28  22  79 N5        30.02R                  
NEWPORT*       CLOUDY    24  19  81 N10       29.96R WCI  14          
BENNINGTON     CLOUDY    28  24  85 NW6       29.95R                  
GALLUP MILLS*    N/A     25 N/A N/A MISG        N/A                   
UNION VILLAGE*   N/A     30 N/A N/A MISG        N/A                   

_____LAKE CHAMPLAIN_____

  
CITY           SKY/WX    TMP DP  RH WIND       PRES   REMARKS
BURTON ISLAND*   N/A     30  27  86 NW1         N/A                   
COLCHESTER RF*   N/A     32  28  86 NE14        N/A                   
DIAMOND ISL*     N/A     30  27  86 N9          N/A                   

$$

NYZ007-026>031-035-052-083-271500-
_____NORTHERN NEW YORK_____

  
CITY           SKY/WX    TMP DP  RH WIND       PRES   REMARKS
PLATTSBURGH    CLOUDY    28  24  85 NW8       30.02R                  
SARANAC LAKE   CLOUDY    24  21  88 CALM      29.92S                  
MASSENA        CLOUDY    29  19  66 N7        30.06R                  
OGDENSBURG*    CLOUDY    28  21  74 N6        30.05S                  
POTSDAM*       CLOUDY    28  25  86 N5        30.03S                  
STARK FALLS*     N/A     25 N/A N/A N3          N/A                   
WATERTOWN      CLOUDY    29  19  66 N8        30.05R                  
FT DRUM        CLOUDY    25  22  88 N6        30.01S                  
ALBANY         CLOUDY    31  26  82 NW8       30.01R                  
GLENS FALLS    CLOUDY    30  22  72 N13       30.00R WCI  20          

$$
NHZ002-005-011-271500-
_____NEW HAMPSHIRE_____

  
CITY           SKY/WX    TMP DP  RH WIND       PRES   REMARKS
LEBANON        CLOUDY    30  23  75 NW8       29.93R                  
KEENE            N/A    N/A N/A N/A MISG        N/A                   
MT WASHINGTON  DRFTSNOW  12  12 100 N36G43      N/A  VSB 1/16WCI -11  
PLYMOUTH       FAIR      31  27  84 W9G17     29.90R                  
WHITEFIELD     FLURRIES  26  20  77 VRB5      29.90R                  

$$

_____REGIONAL QUEBEC LOCATIONS_____

  
CITY           SKY/WX    TMP DP  RH WIND       PRES   REMARKS
MONTREAL       PTSUNNY   28  16  59 N10       30.04R WCI  19          
QUEBEC CITY    PTSUNNY   27  14  59 NW5       29.98R                  
SHERBROOKE     PTSUNNY   23  19  86 N5        29.95R                  

_____REGIONAL ONTARIO LOCATIONS_____

  
CITY           SKY/WX    TMP DP  RH WIND       PRES   REMARKS
OTTAWA         PTSUNNY   27  18  69 NW8       30.06R                  

______KEY______
VSB  - VISIBILITY IN MILES
WCI  - WIND CHILL INDEX
HX   - HEAT INDEX
$$
NNNN

Return to Home page


Western Regional Climate Center, wrcc@dri.edu